[[{"header":{"parameterUnit":"m.s-1","parameterCategory":1,"la1":30.2991,"la2":30.254,"lo1":-89.0895,"lo2":-89.0444,"dy":0.0017,"dx":0.0017,"nx":28,"ny":28,"refTime":"2024-08-25T09:00:00:Z","depth":0,"parameterNumber":2,"parameterNumberName":"U-component_of_WINDS"},"data":[0,0,0,0,0,0,0,0,0,0,0,0,0,0,0,0,0,0,0,0,0,0,0,0,0,0,0,0,0,0,0,0,0,0,0,0,0,0,0,0,0,0,0,0,0,0,0,0,0,0,0,0,0,0,0,0,0,0,1.5453,1.5453,0,1.5521,1.5521,1.5522,1.5541,1.5541,1.554,1.554,1.5608,1.561,1.5612,0,0,0,0,0,0,0,0,0,0,0,0,0,1.5337,1.5339,1.5453,1.5453,1.5454,1.552,1.5521,1.5522,1.5541,1.5541,1.554,1.554,1.5607,1.561,1.5612,0,0,0,0,0,0,0,0,0,0,0,0,0,1.5394,1.534,1.5452,1.5472,1.5474,1.552,1.5521,1.5523,1.5541,1.5541,1.554,1.554,1.5606,1.561,1.5613,1.5644,0,0,1.5623,1.5624,0,0,0,0,0,0,0,0,1.5391,1.5399,1.5468,1.547,1.5473,1.5522,1.5506,1.5563,1.5541,1.5516,1.554,1.5539,1.558,1.5585,1.5599,1.5648,1.565,1.5623,1.5625,1.5626,1.5627,0,0,0,0,0,0,0,1.5387,1.5396,1.5479,1.5469,1.5472,1.5476,1.5484,1.5517,1.555,1.5518,1.5519,1.5527,1.5581,1.5596,1.5601,1.5651,1.5623,1.5626,1.5628,1.5629,1.5729,1.5729,0,0,0,0,0,0,1.538,1.5392,1.5477,1.5481,1.543,1.5479,1.5487,1.5507,1.555,1.5556,1.5528,1.5528,1.5591,1.5597,1.5603,1.5642,1.5626,1.5629,1.5631,1.5728,1.5729,1.5729,0,0,0,0,0,0,1.5378,1.5388,1.5475,1.5437,1.5449,1.5482,1.5503,1.5508,1.5523,1.5557,1.5563,1.5537,1.559,1.5599,1.5634,1.5645,1.5631,1.5634,1.5727,1.5728,1.5729,1.5721,0,0,0,0,0,0,1.5374,1.5387,1.5399,1.5438,1.5451,1.5504,1.5504,1.551,1.5529,1.553,1.5567,1.5573,1.5591,1.5629,1.5637,1.5649,1.5636,1.5726,1.5728,1.5729,1.5721,1.5722,1.5723,0,0,0,0,0,1.537,1.5394,1.54,1.541,1.5467,1.5505,1.5513,1.5533,1.553,1.5543,1.5564,1.5572,1.5643,1.5632,1.5642,1.5655,1.5726,1.5727,1.5729,1.572,1.5722,1.5723,0,0,0,0,0,0,1.5355,1.5399,1.5406,1.5443,1.547,1.5508,1.5525,1.5534,1.5562,1.5561,1.5585,1.5593,1.5627,1.5645,1.5632,1.5688,1.5684,1.5688,1.5674,1.5676,1.5677,1.5672,1.5639,0,0,0,0,0,1.5357,1.5384,1.5421,1.545,1.5464,1.5492,1.5509,1.5522,1.5551,1.5562,1.5587,1.5614,1.5642,1.566,1.5688,1.5724,1.5732,1.5737,1.5738,1.5739,1.5742,1.5761,1.5764,1.5735,1.5735,1.5735,0,0,1.5359,1.5387,1.5403,1.5448,1.547,1.5498,1.5501,1.553,1.555,1.5567,1.5601,1.562,1.5652,1.5687,1.5704,1.5703,1.5752,1.5741,1.5742,1.5744,1.5763,1.5765,1.5768,1.5736,1.5735,1.5735,0,0,1.5378,1.5402,1.5428,1.5451,1.5485,1.5504,1.551,1.5547,1.556,1.5595,1.5608,1.5632,1.5681,1.5703,1.572,1.5747,1.5755,1.5756,1.5762,1.578,1.5782,1.5784,1.5793,1.5796,1.5759,1.5758,1.5758,0,1.5376,1.5419,1.5441,1.5469,1.5488,1.5505,1.5532,1.5552,1.5594,1.5606,1.5605,1.5666,1.5689,1.5729,1.5736,1.575,1.5757,1.5751,1.578,1.5783,1.5785,1.5794,1.5797,1.5758,1.5758,1.5758,1.5758,0,1.5415,1.5444,1.5461,1.5501,1.5523,1.555,1.5576,1.5595,1.5606,1.5625,1.566,1.5688,1.5722,1.5733,1.5744,1.5775,1.5773,1.5776,1.5773,1.5787,1.5796,1.5799,1.5758,1.5758,1.5758,1.5758,0,0,1.5425,1.5477,1.5483,1.5501,1.554,1.5563,1.5591,1.5625,1.564,1.5668,1.5691,1.5732,1.5735,1.5755,1.5769,1.5786,1.5804,1.5787,1.5788,1.5788,1.5839,1.5836,1.5839,1.581,1.5811,1.5812,1.5836,0,1.5448,1.5499,1.552,1.5561,1.5587,1.5604,1.5628,1.5654,1.5672,1.5697,1.5717,1.5746,1.5748,1.576,1.5777,1.5798,1.5815,1.5797,1.5831,1.5832,1.5822,1.5844,1.5841,1.5862,1.5839,1.584,1.584,0,1.5481,1.5509,1.5553,1.5589,1.5601,1.5622,1.5654,1.5678,1.5708,1.572,1.5743,1.5756,1.5786,1.5781,1.5822,1.5809,1.5825,1.5838,1.5839,1.5842,1.5836,1.5847,1.587,1.5872,1.5846,1.5846,1.5845,0,1.5483,1.5532,1.5565,1.558,1.5623,1.5637,1.5656,1.5685,1.5704,1.5732,1.5744,1.5775,1.5792,1.5815,1.5837,1.5832,1.5875,1.5873,1.5885,1.5884,1.5893,1.5892,1.5917,1.5904,1.5904,1.5904,1.5904,0,1.5505,1.5531,1.5566,1.5586,1.5615,1.5639,1.5667,1.5687,1.5713,1.5736,1.5753,1.5774,1.5801,1.5826,1.5843,1.5874,1.5881,1.5891,1.5895,1.5889,1.5888,1.5899,1.5898,1.5905,1.5905,1.5904,1.5904,0,1.5512,1.5537,1.5573,1.5611,1.5621,1.5641,1.5672,1.5692,1.5711,1.5741,1.5749,1.5779,1.5809,1.5833,1.5872,1.5884,1.5916,1.592,1.5905,1.5907,1.5918,1.5916,1.5951,1.5957,1.594,1.594,1.5941,0,1.5524,1.5545,1.5585,1.5602,1.562,1.5647,1.5667,1.5691,1.571,1.5746,1.5761,1.5792,1.5819,1.5866,1.5891,1.5921,1.5926,1.5937,1.5931,1.5924,1.5926,1.5924,1.5926,1.5937,1.5937,1.5937,1.5937,0,1.5543,1.5555,1.5582,1.5614,1.5636,1.5662,1.5689,1.5702,1.573,1.5751,1.5782,1.5803,1.5843,1.5874,1.5907,1.5925,1.5936,1.5939,1.5943,1.5937,1.5927,1.5931,1.5906,1.5938,1.5937,1.5937,1.5937,1.5937,1.5553,1.5571,1.5602,1.5632,1.5654,1.5679,1.5699,1.5721,1.5747,1.5782,1.5795,1.5827,1.5856,1.5901,1.592,1.5945,1.5946,1.5952,1.5954,1.5955,1.5954,1.5924,1.5951,1.5951,1.5951,1.5951,1.5951,0,1.5572,1.5592,1.562,1.5656,1.5679,1.5688,1.5718,1.5736,1.5764,1.5791,1.5817,1.5853,1.5883,1.591,1.5942,1.5956,1.5962,1.5964,1.5962,1.5966,1.5952,1.5944,1.5959,1.5959,1.5959,1.5959,1.5959,1.5959,1.5584,1.5616,1.5631,1.5674,1.5694,1.5726,1.5742,1.5764,1.5786,1.5825,1.585,1.5868,1.5895,1.5929,1.5956,1.5964,1.5974,1.5974,1.5983,1.5968,1.5967,1.5966,1.596,1.5977,1.5977,1.5995,1.5995,1.5995]},{"header":{"parameterUnit":"m.s-1","parameterCategory":1,"la1":30.2991,"la2":30.254,"lo1":-89.0895,"lo2":-89.0444,"dy":0.0017,"dx":0.0017,"nx":28,"ny":28,"refTime":"2024-08-25T09:00:00:Z","depth":0,"parameterNumber":3,"parameterNumberName":"V-component_of_WINDS"},"data":[0,0,0,0,0,0,0,0,0,0,0,0,0,0,0,0,0,0,0,0,0,0,0,0,0,0,0,0,0,0,0,0,0,0,0,0,0,0,0,0,0,0,0,0,0,0,0,0,0,0,0,0,0,0,0,0,0,0,-0.6785,-0.6786,0,-0.6873,-0.6874,-0.6875,-0.6914,-0.6914,-0.6914,-0.6914,-0.7005,-0.7007,-0.701,0,0,0,0,0,0,0,0,0,0,0,0,0,-0.6651,-0.6654,-0.6785,-0.6786,-0.6787,-0.6873,-0.6874,-0.6875,-0.6914,-0.6914,-0.6914,-0.6913,-0.7004,-0.7007,-0.701,0,0,0,0,0,0,0,0,0,0,0,0,0,-0.6722,-0.6654,-0.6785,-0.6817,-0.682,-0.6873,-0.6874,-0.6876,-0.6914,-0.6914,-0.6914,-0.6913,-0.7003,-0.7007,-0.7011,-0.7038,0,0,-0.7022,-0.7024,0,0,0,0,0,0,0,0,-0.6717,-0.6726,-0.6811,-0.6814,-0.6819,-0.6882,-0.6861,-0.693,-0.6914,-0.6878,-0.6914,-0.6913,-0.6964,-0.6971,-0.6988,-0.7042,-0.7046,-0.7023,-0.7025,-0.7027,-0.7028,0,0,0,0,0,0,0,-0.6713,-0.6723,-0.682,-0.6812,-0.6817,-0.6827,-0.6837,-0.6874,-0.6921,-0.6882,-0.6885,-0.6894,-0.6966,-0.6985,-0.6991,-0.7048,-0.7022,-0.7026,-0.7028,-0.703,-0.713,-0.7131,0,0,0,0,0,0,-0.6702,-0.6718,-0.6817,-0.6822,-0.6767,-0.683,-0.6841,-0.6862,-0.6921,-0.693,-0.6894,-0.6896,-0.6978,-0.6986,-0.6994,-0.7031,-0.7026,-0.703,-0.7032,-0.713,-0.713,-0.7131,0,0,0,0,0,0,-0.6699,-0.6711,-0.6813,-0.6771,-0.6785,-0.6832,-0.6856,-0.6864,-0.6882,-0.6931,-0.694,-0.6904,-0.6978,-0.6989,-0.7027,-0.7035,-0.7032,-0.7035,-0.7129,-0.713,-0.7131,-0.7105,0,0,0,0,0,0,-0.6695,-0.6709,-0.672,-0.6771,-0.6787,-0.6844,-0.6857,-0.6866,-0.6888,-0.6891,-0.6942,-0.6951,-0.6979,-0.7021,-0.7031,-0.704,-0.7038,-0.7129,-0.713,-0.713,-0.7105,-0.7104,-0.7104,0,0,0,0,0,-0.669,-0.6709,-0.672,-0.6732,-0.6801,-0.6845,-0.6854,-0.6886,-0.6889,-0.69,-0.6932,-0.6949,-0.7032,-0.7025,-0.7036,-0.7046,-0.7129,-0.713,-0.713,-0.7105,-0.7104,-0.7104,0,0,0,0,0,0,-0.6657,-0.6716,-0.6729,-0.6765,-0.6799,-0.6851,-0.6866,-0.6884,-0.6918,-0.6919,-0.6958,-0.6969,-0.7004,-0.7029,-0.702,-0.7077,-0.7082,-0.7085,-0.7059,-0.7059,-0.7058,-0.7051,-0.7041,0,0,0,0,0,-0.6654,-0.6683,-0.6734,-0.676,-0.6777,-0.6818,-0.6839,-0.686,-0.6898,-0.6913,-0.6947,-0.6983,-0.7018,-0.704,-0.7074,-0.7109,-0.7121,-0.7122,-0.7121,-0.712,-0.7122,-0.7144,-0.7145,-0.7134,-0.7134,-0.7134,0,0,-0.6647,-0.6683,-0.67,-0.6755,-0.6784,-0.6815,-0.683,-0.6862,-0.6885,-0.6918,-0.6956,-0.6983,-0.7026,-0.7063,-0.7081,-0.7085,-0.7129,-0.7121,-0.712,-0.7123,-0.7145,-0.7146,-0.7147,-0.7134,-0.7134,-0.7134,0,0,-0.6651,-0.6681,-0.6707,-0.6736,-0.6781,-0.6808,-0.6815,-0.6864,-0.6883,-0.6922,-0.6947,-0.6976,-0.7034,-0.7064,-0.7087,-0.7104,-0.7122,-0.7114,-0.7111,-0.7131,-0.7132,-0.7133,-0.714,-0.7142,-0.7117,-0.7116,-0.7116,0,-0.6637,-0.6684,-0.6718,-0.6749,-0.6773,-0.6803,-0.683,-0.6857,-0.6911,-0.6927,-0.693,-0.7005,-0.7036,-0.7081,-0.7085,-0.7103,-0.7112,-0.7109,-0.7129,-0.713,-0.7132,-0.7139,-0.7141,-0.7115,-0.7115,-0.7116,-0.7116,0,-0.6666,-0.6698,-0.6714,-0.6765,-0.679,-0.6819,-0.6858,-0.688,-0.69,-0.6927,-0.6968,-0.7006,-0.705,-0.7062,-0.7081,-0.711,-0.7111,-0.7121,-0.7127,-0.7131,-0.7139,-0.7141,-0.7114,-0.7114,-0.7114,-0.7115,0,0,-0.665,-0.672,-0.6726,-0.675,-0.6801,-0.6827,-0.6858,-0.69,-0.6919,-0.6955,-0.6982,-0.7032,-0.7042,-0.7068,-0.7091,-0.7109,-0.7121,-0.7118,-0.7119,-0.7117,-0.7157,-0.7149,-0.7151,-0.7133,-0.7134,-0.7135,-0.7153,0,-0.6662,-0.6717,-0.6749,-0.6792,-0.6823,-0.6853,-0.688,-0.6915,-0.6942,-0.6973,-0.7003,-0.7038,-0.7048,-0.7064,-0.7083,-0.7116,-0.713,-0.7115,-0.716,-0.7161,-0.7148,-0.7155,-0.7146,-0.7162,-0.7156,-0.7157,-0.7157,0,-0.6682,-0.6718,-0.6764,-0.6813,-0.6827,-0.6851,-0.6893,-0.6922,-0.6963,-0.6981,-0.7011,-0.7034,-0.7069,-0.7072,-0.7121,-0.711,-0.7131,-0.715,-0.7151,-0.7156,-0.7159,-0.7161,-0.7168,-0.717,-0.7162,-0.7161,-0.7161,0,-0.6667,-0.6727,-0.6762,-0.6782,-0.684,-0.6856,-0.6881,-0.6922,-0.6946,-0.6983,-0.6999,-0.7039,-0.7062,-0.7093,-0.7128,-0.7127,-0.7173,-0.7179,-0.719,-0.7189,-0.7198,-0.7197,-0.7209,-0.7211,-0.7211,-0.7211,-0.7211,0,-0.6676,-0.6703,-0.6756,-0.6778,-0.681,-0.6847,-0.6877,-0.6905,-0.6941,-0.6969,-0.6998,-0.7024,-0.7068,-0.71,-0.7127,-0.7164,-0.7174,-0.719,-0.7197,-0.7188,-0.7186,-0.7202,-0.7202,-0.7212,-0.7212,-0.7211,-0.7211,0,-0.6665,-0.6701,-0.6742,-0.6794,-0.6808,-0.6829,-0.6874,-0.6897,-0.6926,-0.6961,-0.6972,-0.7017,-0.7057,-0.7094,-0.7147,-0.7165,-0.7202,-0.7211,-0.7188,-0.7192,-0.7201,-0.72,-0.7223,-0.7229,-0.7226,-0.7226,-0.7226,0,-0.6668,-0.669,-0.6745,-0.6766,-0.679,-0.6824,-0.6848,-0.6886,-0.6911,-0.696,-0.6977,-0.7018,-0.7053,-0.7115,-0.7153,-0.7194,-0.7204,-0.721,-0.721,-0.7201,-0.7205,-0.7203,-0.7206,-0.7209,-0.7208,-0.7208,-0.7208,0,-0.6671,-0.6688,-0.6723,-0.6763,-0.6792,-0.6826,-0.6861,-0.6877,-0.6922,-0.6948,-0.6988,-0.7015,-0.7069,-0.711,-0.7156,-0.7183,-0.7203,-0.7208,-0.7213,-0.7203,-0.7189,-0.7198,-0.7186,-0.7207,-0.7207,-0.7207,-0.7207,-0.7207,-0.6668,-0.6689,-0.6731,-0.6768,-0.6799,-0.6831,-0.6856,-0.6888,-0.6922,-0.6969,-0.6989,-0.703,-0.7072,-0.7135,-0.7162,-0.7195,-0.72,-0.7207,-0.7209,-0.721,-0.7208,-0.7184,-0.7204,-0.7204,-0.7204,-0.7204,-0.7204,0,-0.6673,-0.6702,-0.6736,-0.6784,-0.6814,-0.6831,-0.6871,-0.6895,-0.693,-0.6967,-0.7002,-0.7049,-0.7089,-0.7131,-0.7174,-0.7192,-0.7203,-0.7202,-0.7201,-0.7208,-0.7201,-0.7193,-0.7193,-0.7193,-0.7193,-0.7193,-0.7193,-0.7193,-0.6679,-0.6716,-0.6738,-0.6791,-0.682,-0.686,-0.6881,-0.6912,-0.6942,-0.6993,-0.7027,-0.7053,-0.7093,-0.7139,-0.7177,-0.7189,-0.7203,-0.72,-0.7214,-0.7207,-0.7208,-0.7208,-0.7201,-0.7203,-0.7203,-0.7218,-0.7218,-0.7219]}]]